When you browse on this site, cookies collect data to enhance your experience and personalize the content and advertising you see.
Visit our Privacy Policy to learn more. By continuing to use the site, you agree to this use of cookies and data.
  • In Austria
  • List of Countries
  • For 7 days
  • Water Temperature
  • Weather Map
  • News
  • Weather Widgets
  • user-avatar
    Login

    Hourly Weather Toronto

    Today, 18 January, Saturday

    Time Temperature Precipitation Wind Pressure Humidity
    00:00 -12°C° 0 mm 3 mps 765 mmHg 64%
    01:00 -12°C° 0 mm 3 mps 765 mmHg 63%
    02:00 -11°C° 0 mm 4 mps 763 mmHg 68%
    03:00 -11°C° 0 mm 4 mps 762 mmHg 72%
    04:00 -11°C° 0 mm 5 mps 761 mmHg 77%
    05:00 -11°C° 0.1 mm 6 mps 759 mmHg 77%
    06:00 -10°C° 0.1 mm 6 mps 758 mmHg 77%
    07:00 -10°C° 0.1 mm 6 mps 757 mmHg 77%
    08:00 -9°C° 0.2 mm 7 mps 755 mmHg 80%
    09:00 -9°C° 0.2 mm 7 mps 754 mmHg 82%
    10:00 -9°C° 0.2 mm 7 mps 752 mmHg 85%
    11:00 -8°C° 1.2 mm 7 mps 750 mmHg 88%
    12:00 -8°C° 1.2 mm 8 mps 748 mmHg 91%
    13:00 -8°C° 1.2 mm 8 mps 746 mmHg 94%
    14:00 -7°C° 1.5 mm 7 mps 744 mmHg 95%
    15:00 -5°C° 1.5 mm 6 mps 742 mmHg 96%
    16:00 -4°C° 1.5 mm 5 mps 741 mmHg 97%
    17:00 -4°C° 2.3 mm 5 mps 739 mmHg 97%
    18:00 -2°C° 2.3 mm 5 mps 738 mmHg 98%
    19:00 -2°C° 2.3 mm 4 mps 736 mmHg 98%
    20:00 -1°C° 0.7 mm 5 mps 736 mmHg 98%
    21:00 -1°C° 0.7 mm 6 mps 735 mmHg 98%
    22:00 -1°C° 0.7 mm 7 mps 735 mmHg 99%
    23:00 -1°C° 0.2 mm 8 mps 735 mmHg 95%

    Tomorrow, 19 January, Sunday

    Time Temperature Precipitation Wind Pressure Humidity
    00:00 -3°C° 0.2 mm 9 mps 735 mmHg 92%
    01:00 -3°C° 0.2 mm 10 mps 736 mmHg 89%
    02:00 -4°C° 0.3 mm 10 mps 736 mmHg 89%
    03:00 -5°C° 0.3 mm 9 mps 737 mmHg 89%
    04:00 -6°C° 0.3 mm 9 mps 737 mmHg 89%
    05:00 -7°C° 0.3 mm 8 mps 739 mmHg 88%
    06:00 -8°C° 0.3 mm 7 mps 740 mmHg 87%
    07:00 -8°C° 0.3 mm 6 mps 741 mmHg 85%
    08:00 -9°C° 0 mm 6 mps 742 mmHg 85%
    09:00 -9°C° 0 mm 6 mps 743 mmHg 84%
    10:00 -10°C° 0 mm 6 mps 744 mmHg 83%
    11:00 -9°C° 0 mm 6 mps 744 mmHg 83%
    12:00 -9°C° 0 mm 6 mps 745 mmHg 83%
    13:00 -9°C° 0 mm 6 mps 745 mmHg 82%
    14:00 -8°C° 0 mm 5 mps 746 mmHg 84%
    15:00 -8°C° 0 mm 5 mps 746 mmHg 85%
    16:00 -8°C° 0 mm 5 mps 747 mmHg 87%
    17:00 -10°C° 0.1 mm 5 mps 747 mmHg 87%
    18:00 -11°C° 0.1 mm 5 mps 748 mmHg 87%
    19:00 -11°C° 0.1 mm 5 mps 749 mmHg 88%
    20:00 -12°C° 0 mm 5 mps 749 mmHg 87%
    21:00 -13°C° 0 mm 5 mps 750 mmHg 87%
    22:00 -13°C° 0 mm 5 mps 750 mmHg 86%
    23:00 -14°C° 0 mm 5 mps 751 mmHg 87%

    Day after tomorrow, 20 January, Monday

    Time Temperature Precipitation Wind Pressure Humidity
    00:00 -14°C° 0 mm 4 mps 751 mmHg 88%
    01:00 -15°C° 0 mm 4 mps 752 mmHg 89%
    02:00 -15°C° 0 mm 4 mps 752 mmHg 87%
    03:00 -16°C° 0 mm 4 mps 752 mmHg 86%
    04:00 -17°C° 0 mm 4 mps 753 mmHg 85%
    05:00 -17°C° 0 mm 4 mps 753 mmHg 84%
    06:00 -17°C° 0 mm 4 mps 754 mmHg 83%
    07:00 -18°C° 0 mm 4 mps 754 mmHg 82%
    08:00 -16°C° 0 mm 3 mps 755 mmHg 82%
    09:00 -15°C° 0 mm 3 mps 755 mmHg 82%
    10:00 -14°C° 0 mm 3 mps 756 mmHg 82%
    11:00 -13°C° 0 mm 3 mps 756 mmHg 83%
    12:00 -10°C° 0 mm 3 mps 756 mmHg 84%
    13:00 -8°C° 0 mm 2 mps 756 mmHg 85%
    14:00 -8°C° 0 mm 3 mps 755 mmHg 85%
    15:00 -8°C° 0 mm 3 mps 755 mmHg 86%
    16:00 -7°C° 0 mm 3 mps 755 mmHg 86%
    17:00 -8°C° 0 mm 3 mps 755 mmHg 87%
    18:00 -10°C° 0 mm 4 mps 755 mmHg 89%
    19:00 -11°C° 0 mm 4 mps 755 mmHg 90%
    20:00 -11°C° 0 mm 4 mps 755 mmHg 90%
    21:00 -11°C° 0 mm 4 mps 755 mmHg 89%
    22:00 -11°C° 0 mm 5 mps 755 mmHg 89%
    23:00 -10°C° 0 mm 4 mps 755 mmHg 89%

    21 January, Tuesday

    Time Temperature Precipitation Wind Pressure Humidity
    00:00 -10°C° 0 mm 4 mps 755 mmHg 89%
    01:00 -10°C° 0 mm 4 mps 755 mmHg 89%
    02:00 -11°C° 0 mm 4 mps 755 mmHg 88%
    03:00 -14°C° 0 mm 4 mps 756 mmHg 87%
    04:00 -15°C° 0 mm 4 mps 756 mmHg 86%
    05:00 -16°C° 0 mm 4 mps 756 mmHg 87%
    06:00 -17°C° 0 mm 4 mps 757 mmHg 87%
    07:00 -17°C° 0 mm 3 mps 757 mmHg 88%
    08:00 -17°C° 0 mm 3 mps 758 mmHg 87%
    09:00 -16°C° 0 mm 2 mps 758 mmHg 87%
    10:00 -16°C° 0 mm 2 mps 759 mmHg 86%
    11:00 -14°C° 0 mm 2 mps 759 mmHg 86%
    12:00 -11°C° 0 mm 1 mps 759 mmHg 85%
    13:00 -10°C° 0 mm 1 mps 759 mmHg 85%
    14:00 -9°C° 0 mm 1 mps 759 mmHg 86%
    15:00 -9°C° 0 mm 1 mps 759 mmHg 88%
    16:00 -8°C° 0 mm 1 mps 759 mmHg 89%
    17:00 -9°C° 0 mm 1 mps 759 mmHg 90%
    18:00 -9°C° 0 mm 1 mps 759 mmHg 91%
    19:00 -12°C° 0 mm 2 mps 760 mmHg 92%
    20:00 -12°C° 0 mm 2 mps 759 mmHg 92%
    21:00 -12°C° 0 mm 2 mps 759 mmHg 92%
    22:00 -12°C° 0 mm 2 mps 759 mmHg 92%
    23:00 -13°C° 0 mm 3 mps 759 mmHg 92%

    22 January, Wednesday

    Time Temperature Precipitation Wind Pressure Humidity
    00:00 -13°C° 0 mm 3 mps 759 mmHg 92%
    01:00 -13°C° 0 mm 3 mps 759 mmHg 92%
    02:00 -13°C° 0 mm 3 mps 759 mmHg 92%
    03:00 -13°C° 0 mm 3 mps 759 mmHg 93%
    04:00 -13°C° 0 mm 3 mps 759 mmHg 93%
    05:00 -13°C° 0 mm 3 mps 759 mmHg 93%
    06:00 -12°C° 0 mm 3 mps 759 mmHg 93%
    07:00 -12°C° 0 mm 3 mps 759 mmHg 92%
    08:00 -11°C° 0 mm 4 mps 759 mmHg 90%
    09:00 -11°C° 0 mm 5 mps 759 mmHg 88%
    10:00 -8°C° 0 mm 5 mps 760 mmHg 87%
    11:00 -7°C° 0 mm 5 mps 759 mmHg 86%
    12:00 -6°C° 0 mm 6 mps 759 mmHg 85%
    13:00 -5°C° 0 mm 6 mps 759 mmHg 85%
    14:00 -5°C° 0 mm 6 mps 759 mmHg 85%
    15:00 -5°C° 0 mm 5 mps 759 mmHg 86%
    16:00 -5°C° 0 mm 5 mps 758 mmHg 86%
    17:00 -6°C° 0 mm 5 mps 759 mmHg 87%
    18:00 -7°C° 0 mm 5 mps 759 mmHg 87%
    19:00 -8°C° 0 mm 5 mps 759 mmHg 88%
    20:00 -8°C° 0 mm 5 mps 759 mmHg 88%
    21:00 -8°C° 0 mm 5 mps 759 mmHg 88%
    22:00 -8°C° 0 mm 5 mps 759 mmHg 88%
    23:00 -7°C° 0 mm 4 mps 759 mmHg 89%

    23 January, Thursday

    Time Temperature Precipitation Wind Pressure Humidity
    00:00 -7°C° 0 mm 4 mps 759 mmHg 89%
    01:00 -7°C° 0 mm 4 mps 759 mmHg 90%
    02:00 -7°C° 0 mm 4 mps 759 mmHg 90%
    03:00 -7°C° 0 mm 4 mps 759 mmHg 89%
    04:00 -7°C° 0 mm 4 mps 759 mmHg 89%
    05:00 -7°C° 0 mm 4 mps 759 mmHg 89%
    06:00 -7°C° 0 mm 4 mps 759 mmHg 89%
    07:00 -7°C° 0 mm 4 mps 759 mmHg 89%
    08:00 -5°C° 0 mm 4 mps 760 mmHg 88%
    09:00 -4°C° 0 mm 4 mps 760 mmHg 87%
    10:00 -3°C° 0 mm 4 mps 760 mmHg 86%
    11:00 -3°C° 0 mm 4 mps 760 mmHg 88%
    12:00 -2°C° 0 mm 4 mps 760 mmHg 89%
    13:00 -1°C° 0 mm 4 mps 760 mmHg 91%
    14:00 0°C° 0 mm 3 mps 759 mmHg 91%
    15:00 -1°C° 0 mm 3 mps 759 mmHg 90%
    16:00 -1°C° 0 mm 3 mps 759 mmHg 90%
    17:00 -2°C° 0 mm 3 mps 759 mmHg 90%
    18:00 -4°C° 0 mm 3 mps 759 mmHg 91%
    19:00 -5°C° 0 mm 3 mps 759 mmHg 91%
    20:00 -5°C° 0 mm 3 mps 759 mmHg 90%
    21:00 -4°C° 0 mm 2 mps 759 mmHg 89%
    22:00 -5°C° 0 mm 2 mps 759 mmHg 88%
    23:00 -5°C° 0 mm 2 mps 759 mmHg 88%
    Show more